Powrót do katalogu

STARLINK-5833

AktywnyŁącznośćVLEO
NORAD 55773·PAYLOAD·🇺🇸 United States

Wystrzelony Mar 3, 2023 z Vandenberg Space Force Base

Loading…

Następne Przeloty (najbliższe 24 godziny)

TLE

ŚwieżeSource: CelesTrak SupGP

Epoka: Sep 14, 2026, 21:57 UTC

1 55773C 23028AJ  26257.91506944 -.00037178  00000+0 -31141-2 0  2578
2 55773  70.0001 107.4338 0003103 272.2031 143.9976 14.98368218    17

Śledź STARLINK-5833 w czasie rzeczywistym z AllMySat

Download on the App Store